Location: Chiroubles
(46.1812°N, 4.6660°E)
Time: 05:02:06
(UTC+00:00)

Transit 4A - Pass Details

Date: 30 November 2020
Orbit: 864 x 980 km, 66.8° (Epoch: 25 January)

Event Time Altitude Azimuth Distance (km) Brightness Sun altitude
Rises 11:37:26 0° 307° (NW) 3,687 10.7 22.0°
Reaches altitude 10° 11:42:31 10° 342° (NNW) 2,741 9.9 22.0°
Maximum altitude 11:44:17 11° 358° (N) 2,657 9.8 22.0°
Drops below altitude 10° 11:46:04 10° 14° (NNE) 2,737 9.9 22.0°
Sets 11:51:07 0° 49° (NE) 3,669 10.6 21.9°
